Powrót do katalogu

SL-12 DEB

AktywnyHEO
NORAD 48417·DEBRIS·🇷🇺 Russia

Wystrzelony May 19, 1990 z Baikonur Cosmodrome

Loading…

Następne Przeloty (najbliższe 24 godziny)

TLE

ŚwieżeSource: Space-Track

Epoka: Sep 13, 2026, 08:42 UTC

1 48417U 90045J   26256.36268293  .00000887  00000-0  96058-3 0  9996
2 48417  65.0470 337.8495 5432455  36.3429 350.5322  4.77737018215745

Śledź SL-12 DEB w czasie rzeczywistym z AllMySat

Download on the App Store